Location: Heidgraben
(53.7081°N, 9.6576°E)
Time: 09:27:39
(UTC+00:00)

Resurs 01 Rocket - Pass Details

Date: 05 July 2020
Orbit: 634 x 644 km, 98.0° (Epoch: 06 August)

Event Time Altitude Azimuth Distance (km) Brightness Sun altitude
Rises 20:47:34 0° 201° (SSW) 2,931 4.7 -6.3°
Reaches altitude 10° 20:50:10 10° 216° (SW) 2,026 4.0 -6.5°
Maximum altitude 20:53:39 23° 268° (W) 1,371 3.8 -6.8°
Drops below altitude 10° 20:57:11 10° 321° (NW) 2,035 6.0 -7.1°
Sets 20:59:48 0° 336° (NNW) 2,948 7.2 -7.3°
